Welcome to the New NWS' Forecast!
Most changes are behind the scenes, but click here for differences you might notice.

Regional Weather Roundup (RWR)

Issued by Gray - Portland, ME (GYX)

                            
000
ASUS41 KGYX 221110
RWRGYX
WEATHER ROUNDUP FOR MAINE AND NEW HAMPSHIRE
NATIONAL WEATHER SERVICE GRAY ME
700 AM EDT MON OCT 22 2018

MEZ002-005-006-010-012-015-018-020-021-024-026-027-029-221200-
MAINE
  
CITY           SKY/WX    TMP DP  RH WIND       PRES   REMARKS
PORTLAND       CLOUDY    31  24  75 CALM      30.10R                  
SANFORD        FAIR      26  20  77 SW3       30.11R                  
BAR HARBOR     FAIR      31  22  69 W3        30.05R                  
WISCASSET      FAIR      29  25  85 CALM      30.09R                  
ROCKLAND       FAIR      29  23  78 CALM      30.07R                  
FRYEBURG       FAIR      34  16  47 W12G20    30.07R                  
LEWISTONAUBURN FAIR      32  21  64 S5        30.07R                  
AUGUSTA        FAIR      35  19  52 W8        30.05R                  
WATERVILLE     MOCLDY    33  20  58 W6        30.02R                  
BANGOR         FAIR      28  20  71 S3        30.03R                  
GREENVILLE       N/A     28  18  66 NW12G25   29.91R WCI  18          
MILLINOCKET    FAIR      31  19  61 NW5       29.97R                  
HOULTON        FAIR      27  20  75 W6        29.91R                  
PRESQUE ISLE   FAIR      26  21  81 W3        29.90R                  
FRENCHVILLE    FAIR      25  14  63 NW9       29.84R                  
CARIBOU        FAIR      25  17  72 W3        29.87R                  
$$

NHZ002-005-008-009-011-012-014-221200-
NEW HAMPSHIRE
  
CITY           SKY/WX    TMP DP  RH WIND       PRES   REMARKS
PORTSMOUTH     CLEAR     31  19  62 SW6       30.12R                  
ROCHESTER      FAIR      31  19  61 MISG      30.11R                  
NASHUA         FAIR      23  21  92 CALM      30.16R                  
MANCHESTER     FAIR      29  22  75 CALM      30.13R                  
CONCORD        FAIR      25  18  74 CALM      30.13R                  
LACONIA        FAIR      29  20  69 SW3       30.11R                  
PLYMOUTH       MOCLDY    32  19  59 W3        30.09S                  
BERLIN         CLOUDY    31  20  63 VRB5      30.04R                  
WHITEFIELD     CLOUDY    32  18  56 W6        30.07R                  
JAFFREY        FAIR      29  21  72 CALM      30.11R                  
KEENE          FAIR      21  20  96 CALM      30.15R                  
LEBANON        FAIR      25  18  74 S7        30.12R                  
MT WASHINGTON  SNOW       7   7 100 NW53G62     N/A  VSB 0   WCI -22  
$$

VTZ005-007-008-221200-
VERMONT
  
CITY           SKY/WX    TMP DP  RH WIND       PRES   REMARKS
ST JOHNSBURY     N/A     32  19  58 MISG      30.08R                  
MONTPELIER     CLOUDY    31  19  61 CALM      30.11R                  
BURLINGTON     MOCLDY    36  20  52 NW6       30.12R                  
$$

MAZ007-012-024-CTZ003-RIZ002-NYZ038-NYZ072-221200-
SOUTHERN NEW ENGLAND AND NY
  
CITY           SKY/WX    TMP DP  RH WIND       PRES   REMARKS
BOSTON         FAIR      36  23  59 SW9       30.17R                  
WORCESTER      FAIR      26  23  88 SW7       30.13R                  
NANTUCKET      FAIR      37  20  50 NW9       30.18R                  
PROVIDENCE     FAIR      30  26  85 W6        30.20R                  
HARTFORD       FAIR      29  27  92 SW6       30.18R                  
ALBANY         CLOUDY    39  31  72 SW6       30.17S                  
NEW YORK CITY  FAIR      45  28  51 W12       30.22R                  
$$

ANZ081-ANZ082-ANZ150-NHZ014-MEZ023>029-221200-
COASTAL MARINE OBSERVATIONS
  
STATION/POSITION TIME  TEMP    WIND        PRES    WAVE
                       AIR SEA DIR/SP/G            HT/PER
                 (UTC) (F)     (DEG/KT/KT) (MB)    (FT/S)
MOUNT DESERT ROC 1100   39     280/ 16/ 20 1017.7R
MATINICUS ROCK   1000   39     290/ 20/ 24 1017.0R
ISLE OF SHOALS   1000   37     270/ 17/ 19 1019.0R
JEFFREYS LEDGE   1006      54                N/A     5/ 5
$$

.............KEY..............
   WCI - WIND CHILL
   TC  - TEMPERATURE IN CELSIUS
   VSB - VISIBILITY IN MILES
   HX  - HEAT INDEX
   FAIR- INDICATES FEW OR NO CLOUDS BELOW 12,000 FT, WITH NO 
         SIGNIFICANT WEATHER AND/OR OBSTRUCTIONS TO VISIBILITY.